RH
42 43 48 45 39 36 37 39 41 43 36 30 24 18 14 14 16 18 18 16 14 12 12 14 18 19 16 15 15 16 16 13 12 11 9 9 15 22 18 18 16 21 28
41 39 46 43 40 38 38 36 36 38 38 27 20 18 18 18 18 17 16 15 14 14 18 26 30 22 16 16 15 14 16 17 14 11 9 11 15 16 17 15 18 28 28
39 37 39 39 38 39 42 38 36 33 32 29 22 24 24 22 21 22 22 21 21 25 35 41 36 23 20 15 15 25 33 42 40 21 17 22 17 23 30 28 29 32 30
33 36 36 38 39 40 40 40 37 33 33 30 27 28 29 27 24 20 17 21 32 38 46 48 46 37 31 24 18 13 33 46 35 33 33 28 36 44 38 44 40 34 29
29 33 36 39 41 41 44 42 38 37 37 36 36 36 36 32 25 26 22 24 38 49 48 57 51 44 37 32 25 15 18 35 32 34 34 45 47 48 49 46 34 31 26
26 31 35 37 40 42 46 45 40 41 39 41 48 48 43 38 30 28 31 23 39 36 39 48 47 41 36 27 19 13 13 24 31 32 34 47 51 52 49 39 33 30 23
25 29 36 37 40 44 50 50 45 41 41 42 50 49 51 43 39 43 41 20 27 30 29 26 20 14 13 13 13 11 15 18 22 27 31 37 45 46 42 35 33 22 20
24 27 34 41 41 48 52 53 49 44 41 42 45 45 46 51 51 48 45 29 26 25 25 21 15 11 15 20 18 13 14 19 19 19 23 30 33 32 31 31 29 23 20
25 31 33 39 48 46 53 52 52 50 44 41 43 44 43 50 59 56 52 51 35 26 28 23 14 15 22 25 13 14 19 18 16 16 16 19 22 24 23 24 21 23 21
27 39 53 52 52 57 46 50 50 51 50 47 44 43 44 49 52 65 59 56 57 34 25 21 14 20 36 32 17 18 21 19 26 29 22 17 23 31 26 25 28 28 30
26 28 49 50 57 62 60 50 46 46 49 47 42 43 45 44 49 58 66 64 52 34 24 22 16 23 33 33 29 32 34 36 33 26 29 33 41 40 35 36 37 38 27
25 23 26 34 43 43 50 62 67 62 52 49 44 42 47 47 46 54 61 65 56 42 28 22 17 23 28 28 31 32 36 34 35 28 32 35 49 48 45 41 40 37 28
25 26 24 24 22 24 34 44 55 68 71 65 55 45 42 44 51 50 54 59 60 55 40 24 19 22 26 27 30 31 35 37 36 35 33 34 47 50 47 40 36 33 26
20 26 23 22 22 22 22 28 37 46 55 61 66 57 49 47 46 48 51 55 58 60 56 33 22 18 28 27 28 30 30 32 36 31 30 35 37 38 39 39 36 31 27
21 21 25 30 30 28 25 24 27 33 41 48 54 58 51 44 44 45 46 54 61 62 54 48 30 21 27 29 29 27 29 32 35 38 36 32 32 37 37 39 33 28 28
22 21 22 21 22 25 26 32 28 28 31 43 47 46 48 50 47 48 47 47 55 68 67 50 42 34 31 31 28 27 29 31 35 40 39 33 33 32 32 33 28 26 24
24 24 22 21 19 19 20 24 33 38 37 30 32 43 47 51 55 54 53 52 48 62 71 62 49 46 48 38 32 29 30 30 38 40 38 32 31 30 30 29 29 27 28
23 23 24 24 24 23 21 23 25 30 39 43 37 31 32 42 48 54 54 54 55 56 64 64 56 56 55 54 41 34 32 32 34 32 34 30 31 32 31 28 28 28 26
32 28 26 26 25 25 25 25 25 26 30 46 44 41 36 38 38 48 53 65 65 61 60 64 63 64 60 58 55 50 41 37 35 33 33 31 31 31 30 34 37 32 29
44 39 34 31 28 27 26 26 27 29 29 30 42 43 42 41 47 53 56 62 75 76 70 63 70 75 74 67 63 62 49 46 40 36 35 33 31 31 32 32 39 36 31
53 51 45 42 37 34 33 33 32 31 33 31 30 39 42 40 43 45 55 59 68 78 79 76 75 80 85 80 75 67 57 56 56 46 32 34 32 31 31 32 34 37 33
55 54 53 51 48 43 41 41 40 37 33 31 29 31 35 41 41 46 44 58 65 71 78 88 85 85 84 87 85 78 75 68 63 60 54 40 32 31 31 32 31 33 31
73 66 62 55 55 52 51 47 46 44 38 34 30 29 31 33 38 39 46 43 62 68 69 83 92 88 88 88 87 83 85 80 78 74 67 60 52 40 32 32 32 32 35
86 80 69 68 66 59 55 51 51 47 43 36 32 32 32 35 45 49 44 48 51 68 74 76 83 90 95 94 93 87 86 85 85 80 77 76 73 69 55 41 36 34 33
95 86 73 66 72 71 64 61 54 51 48 43 39 37 36 43 49 48 49 47 47 58 61 68 71 83 93 96 97 92 89 89 87 83 82 80 80 79 76 71 57 47 43
74 79 79 84 77 62 62 62 62 57 54 54 46 42 43 43 52 52 51 55 56 59 60 59 61 71 82 93 95 96 97 93 90 85 82 79 79 77 77 76 73 70 67